Home > Weather > Sydney > Past weeks

Flag for Australia Past Weather in Sydney, New South Wales, Australia — Yesterday and Last 2 Weeks

Now
46 °F

Partly sunny.


Feels Like: 42 °F
Forecast: 42 / 57 °F
Wind: 9 mph from Northwest

Location: Sydney Airport

Current Time: Jun 26, 2016 at 9:18:55 AM

Latest Report: Jun 26, 2016 at 8:30 AM


Visibility: N/A

Pressure: 30.12 "Hg

Humidity: 57%

Dew Point: 32 °F

Location of SydneyLocation

Past Weather in Sydney — Graph

°F

Sydney Temperature Yesterday

Maximum temperature yesterday: 57 °F (at 2:30 PM)
Minimum temperature yesterday: 45 °F (at 5:00 AM)
Average temperature yesterday: 50 °F

High & Low Weather Summary for the Past Weeks

 TemperatureHumidityPressure
High72 °F (Jun 16, 1:30 PM)100% (Jun 19, 11:30 AM)30.69 "Hg (Jun 19, 11:30 AM)
Low43 °F (Jun 26, 4:00 AM)23% (Jun 24, 1:51 PM)29.33 "Hg (Jun 20, 3:00 PM)
Average59 °F59%30.04 "Hg
* Reported Jun 11 8:00 AM — Jun 26 8:00 AM, Sydney, Weather by CustomWeather, © 2016

Note: Actual official high and low records may vary slightly from our data, if they occured in-between our weather recording intervals... More about our weather records

Advertising

Sydney Weather History for the Previous 24 Hours

Scroll right to see more
 ConditionsComfort  
Time TempWeatherWind HumidityBarometerVisibility
8:00 AM
Sun, Jun 26
45 °FPartly sunny.10 mph61%30.15 "HgN/A
7:30 AM45 °FPartly sunny.10 mph61%30.12 "HgN/A
7:00 AM45 °FSunny.13 mph61%30.12 "Hg10 mi
6:30 AM45 °FPartly sunny.13 mph61%30.12 "HgN/A
6:00 AM43 °FPassing clouds.13 mph66%30.12 "HgN/A
5:30 AM43 °FPassing clouds.14 mph66%30.12 "HgN/A
5:00 AM43 °FClear.14 mph66%30.12 "Hg10 mi
4:30 AM43 °FClear.9 mph66%30.09 "Hg10 mi
4:00 AM43 °FClear.13 mph66%30.09 "Hg10 mi
3:30 AM45 °FClear.15 mph61%30.09 "Hg10 mi
3:00 AM45 °FClear.18 mph61%30.09 "Hg10 mi
2:30 AM45 °FClear.20 mph61%30.09 "Hg10 mi
2:00 AM45 °FClear.18 mph61%30.12 "Hg10 mi
1:30 AM46 °FClear.15 mph57%30.12 "Hg10 mi
1:00 AM46 °FClear.14 mph57%30.12 "Hg10 mi
12:30 AM46 °FClear.17 mph57%30.12 "Hg10 mi
12:00 AM46 °FClear.18 mph57%30.12 "Hg10 mi
11:30 PM
Sat, Jun 25
46 °FClear.17 mph57%30.12 "Hg10 mi
11:00 PM48 °FClear.17 mph54%30.12 "Hg10 mi
10:30 PM46 °FClear.17 mph57%30.12 "Hg10 mi
10:00 PM46 °FClear.16 mph57%30.12 "Hg10 mi
9:30 PM48 °FClear.18 mph50%30.12 "Hg10 mi
9:00 PM48 °FClear.17 mph54%30.12 "Hg10 mi
8:30 PM48 °FClear.16 mph50%30.12 "Hg10 mi
8:00 PM50 °FClear.17 mph47%30.12 "Hg10 mi
7:30 PM50 °FClear.17 mph47%30.12 "Hg10 mi
7:00 PM50 °FClear.16 mph47%30.12 "Hg10 mi
6:00 PM52 °FClear.10 mph41%30.09 "Hg10 mi
5:30 PM52 °FClear.10 mph41%30.09 "Hg10 mi
5:00 PM54 °FClear.9 mph41%30.07 "Hg10 mi
4:30 PM55 °FClear.13 mph41%30.07 "Hg10 mi
4:00 PM55 °FClear.15 mph41%30.07 "Hg10 mi
3:30 PM55 °FSunny.15 mph41%30.07 "Hg10 mi
3:00 PM55 °FSunny.17 mph38%30.07 "Hg10 mi
2:30 PM57 °FSunny.17 mph41%30.07 "Hg10 mi
2:00 PM55 °FSunny.20 mph38%30.04 "Hg10 mi
1:30 PM55 °FSunny.18 mph41%30.04 "Hg10 mi
1:00 PM55 °FSunny.18 mph38%30.04 "Hg10 mi
12:30 PM55 °FSunny.16 mph38%30.07 "Hg10 mi
12:00 PM55 °FSunny.15 mph38%30.07 "Hg10 mi
11:00 AM54 °FSunny.15 mph38%30.07 "Hg10 mi
10:30 AM52 °FSunny.16 mph38%30.07 "Hg10 mi
10:00 AM50 °FSunny.21 mph40%30.07 "Hg10 mi
9:30 AM50 °FSunny.20 mph43%30.07 "Hg10 mi
9:00 AM48 °FSunny.22 mph43%30.07 "Hg10 mi
Weather by CustomWeather, © 2016

See weather overviewHow to use our weather pages